CW7849 Weather Reports


time (UTC)temp
C
wind
direction
speed
KPH
gust
KPH
rain 1hr
cm
rain 24hr
cm
rain mn
cm
humidity
%
barometer
mb
20260506201404 4 60 0.0 0.0 0.00 0.00 0.00 57 1012.1
20260506200904 5 60 0.0 0.0 0.00 0.00 0.00 57 1012.2
20260506195904 5 60 1.6 1.6 0.00 0.00 0.00 54 1012.2
20260506195403 5 60 1.6 3.2 0.00 0.00 0.00 54 1012.1
20260506194404 6 60 1.6 4.8 0.00 0.00 0.00 48 1012.1
20260506193904 7 55 1.6 3.2 0.00 0.00 0.00 47 1012.1
20260506193404 7 55 0.0 0.0 0.00 0.00 0.00 44 1012.1
20260506192904 7 55 0.0 0.0 0.00 0.00 0.00 43 1012.0
20260506192405 7 55 1.6 1.6 0.00 0.00 0.00 42 1012.0
20260506191404 8 56 3.2 4.8 0.00 0.00 0.00 40 1011.9
20260506190904 8 56 1.6 4.8 0.00 0.00 0.00 40 1011.9
20260506190404 8 56 3.2 4.8 0.00 0.00 0.00 39 1011.9
20260506185904 8 55 3.2 4.8 0.00 0.00 0.00 38 1011.8
20260506185404 8 50 1.6 4.8 0.00 0.00 0.00 38 1011.9
20260506184904 8 50 1.6 4.8 0.00 0.00 0.00 40 1011.9
20260506184404 9 50 4.8 4.8 0.00 0.00 0.00 39 1011.9
20260506183404 9 49 3.2 4.8 0.00 0.00 0.00 39 1011.8
20260506182902 10 55 3.2 4.8 0.00 0.00 0.00 39 1011.7
20260506182403 10 62 3.2 4.8 0.00 0.00 0.00 38 1011.6
20260506181403 10 58 4.8 8.0 0.00 0.00 0.00 35 1011.6
20260506180903 10 54 4.8 8.0 0.00 0.00 0.00 35 1011.5
20260506180403 10 59 3.2 8.0 0.00 0.00 0.00 35 1011.5
20260506175904 11 32 3.2 4.8 0.00 0.00 0.00 34 1011.5
20260506175403 11 13 3.2 4.8 0.00 0.00 0.00 33 1011.5
20260506174903 11 19 4.8 9.7 0.00 0.00 0.00 34 1011.4
20260506174402 11 23 3.2 8.0 0.00 0.00 0.00 36 1011.2
20260506173904 11 31 3.2 11.3 0.00 0.00 0.00 36 1011.3
20260506173403 11 39 4.8 9.7 0.00 0.00 0.00 35 1011.3
20260506171903 11 48 6.4 14.5 0.00 0.00 0.00 33 1011.3
20260506171403 11 40 6.4 16.1 0.00 0.00 0.00 34 1011.3
20260506170903 11 41 11.3 19.3 0.00 0.00 0.00 32 1011.2
20260506170403 12 47 11.3 19.3 0.00 0.00 0.00 32 1011.2
20260506165903 12 37 4.8 8.0 0.00 0.00 0.00 31 1011.2
20260506164904 12 10 6.4 11.3 0.00 0.00 0.00 32 1011.2
20260506164403 12 13 6.4 12.9 0.00 0.00 0.00 31 1011.2
20260506163903 12 19 3.2 12.9 0.00 0.00 0.00 33 1011.2
20260506163403 12 19 9.7 16.1 0.00 0.00 0.00 32 1011.2
20260506162904 12 4 6.4 11.3 0.00 0.00 0.00 31 1011.2
20260506162403 12 18 6.4 12.9 0.00 0.00 0.00 31 1011.3
20260506161903 13 2 8.0 19.3 0.00 0.00 0.00 32 1011.3
20260506161403 12 340 4.8 14.5 0.00 0.00 0.00 32 1011.3
20260506160902 12 353 4.8 16.1 0.00 0.00 0.00 33 1011.3
20260506160403 12 337 4.8 14.5 0.00 0.00 0.00 32 1011.3
20260506155903 12 351 8.0 16.1 0.00 0.00 0.00 32 1011.2
20260506154903 12 336 8.0 14.5 0.00 0.00 0.00 32 1011.3
20260506154402 12 350 6.4 16.1 0.00 0.00 0.00 33 1011.2
20260506153903 12 8 6.4 19.3 0.00 0.00 0.00 34 1011.2
20260506153403 12 2 9.7 22.5 0.00 0.00 0.00 33 1011.2
20260506152903 12 13 4.8 19.3 0.00 0.00 0.00 34 1011.2
20260506152403 12 9 8.0 16.1 0.00 0.00 0.00 33 1011.3
20260506151403 12 18 9.7 19.3 0.00 0.00 0.00 32 1011.4
20260506150903 12 354 9.7 22.5 0.00 0.00 0.00 34 1011.4
20260506150403 12 353 11.3 22.5 0.00 0.00 0.00 32 1011.5
20260506145903 12 356 9.7 24.1 0.00 0.00 0.00 33 1011.6
20260506145403 12 347 9.7 19.3 0.00 0.00 0.00 32 1011.6
20260506144903 12 357 8.0 16.1 0.00 0.00 0.00 35 1011.7
20260506144403 12 3 12.9 22.5 0.00 0.00 0.00 34 1011.7
20260506143903 12 7 11.3 19.3 0.00 0.00 0.00 30 1011.8
20260506143403 12 3 11.3 16.1 0.00 0.00 0.00 33 1011.7
20260506142402 12 343 9.7 20.9 0.00 0.00 0.00 33 1011.7
20260506141902 12 345 9.7 19.3 0.00 0.00 0.00 34 1011.6
20260506140904 12 351 11.3 22.5 0.00 0.00 0.00 30 1011.7
20260506135903 13 335 9.7 20.9 0.00 0.00 0.00 32 1011.8
20260506134903 13 359 8.0 24.1 0.00 0.00 0.00 35 1012.0
20260506132903 13 328 4.8 11.3 0.00 0.00 0.00 26 1011.9
20260506132403 14 277 3.2 12.9 0.00 0.00 0.00 27 1012.0
20260506131903 13 273 4.8 9.7 0.00 0.00 0.00 22 1012.1
20260506131403 13 176 4.8 9.7 0.00 0.00 0.00 22 1012.2
20260506130903 14 201 8.0 12.9 0.00 0.00 0.00 24 1012.4
20260506130403 13 262 4.8 9.7 0.00 0.00 0.00 26 1012.4
20260506125903 13 143 4.8 14.5 0.00 0.00 0.00 21 1012.5
20260506125403 14 196 11.3 19.3 0.00 0.00 0.00 21 1012.5
20260506124903 13 225 9.7 14.5 0.00 0.00 0.00 21 1012.4
20260506124404 14 227 11.3 19.3 0.00 0.00 0.00 21 1012.4
20260506123903 14 157 12.9 19.3 0.00 0.00 0.00 20 1012.4
20260506123403 14 176 14.5 22.5 0.00 0.00 0.00 20 1012.5
20260506122903 13 202 11.3 16.1 0.00 0.00 0.00 24 1012.6
20260506122403 13 64 1.6 9.7 0.00 0.00 0.00 29 1012.6
20260506120903 13 18 1.6 4.8 0.00 0.00 0.00 27 1012.8
20260506115903 13 116 6.4 16.1 0.00 0.00 0.00 23 1012.9
20260506115404 13 130 16.1 22.5 0.00 0.00 0.00 22 1012.8
20260506114903 13 137 11.3 20.9 0.00 0.00 0.00 23 1012.8
20260506114403 13 166 4.8 14.5 0.00 0.00 0.00 26 1012.8
20260506113903 13 131 9.7 19.3 0.00 0.00 0.00 23 1012.9
20260506113402 13 71 6.4 14.5 0.00 0.00 0.00 23 1012.8
20260506112902 13 158 11.3 20.9 0.00 0.00 0.00 24 1012.8
20260506112403 13 129 16.1 20.9 0.00 0.00 0.00 25 1012.7
20260506111904 12 50 14.5 19.3 0.00 0.00 0.00 27 1012.8
20260506111404 12 63 11.3 24.1 0.00 0.00 0.00 25 1012.9
20260506105904 12 60 9.7 12.9 0.00 0.00 0.00 26 1013.1
20260506105403 12 172 1.6 9.7 0.00 0.00 0.00 25 1013.0
20260506104904 13 181 9.7 19.3 0.00 0.00 0.00 24 1013.1
20260506104403 13 94 17.7 25.7 0.00 0.00 0.00 26 1013.2
20260506103403 12 62 8.0 19.3 0.00 0.00 0.00 25 1013.2
20260506102903 12 145 11.3 20.9 0.00 0.00 0.00 25 1013.2
20260506102404 12 134 4.8 20.9 0.00 0.00 0.00 27 1013.2
20260506101903 12 70 14.5 19.3 0.00 0.00 0.00 26 1013.3
20260506101403 12 103 9.7 14.5 0.00 0.00 0.00 25 1013.5
20260506100903 12 224 8.0 12.9 0.00 0.00 0.00 28 1013.4
20260506100403 12 87 11.3 16.1 0.00 0.00 0.00 26 1013.5
20260506095903 12 121 4.8 9.7 0.00 0.00 0.00 27 1013.5
20260506094403 12 167 11.3 20.9 0.00 0.00 0.00 26 1013.4
20260506093903 12 103 8.0 20.9 0.00 0.00 0.00 29 1013.4
20260506093403 11 82 12.9 19.3 0.00 0.00 0.00 27 1013.4
20260506092903 11 95 3.2 9.7 0.00 0.00 0.00 29 1013.4
20260506091904 11 119 9.7 14.5 0.00 0.00 0.00 27 1013.5
20260506091404 11 156 9.7 19.3 0.00 0.00 0.00 26 1013.4
20260506085903 11 172 11.3 19.3 0.00 0.00 0.00 25 1013.5
20260506085405 11 110 11.3 20.9 0.00 0.00 0.00 29 1013.5
20260506084903 11 126 8.0 14.5 0.00 0.00 0.00 29 1013.5
20260506084403 11 161 6.4 14.5 0.00 0.00 0.00 26 1013.6
20260506083403 11 173 14.5 29.0 0.00 0.00 0.00 31 1013.6
20260506082404 11 100 11.3 19.3 0.00 0.00 0.00 31 1013.7
20260506080903 10 164 11.3 20.9 0.00 0.00 0.00 32 1013.6
20260506080403 10 170 6.4 14.5 0.00 0.00 0.00 33 1013.6
20260506072403 10 143 11.3 19.3 0.00 0.00 0.00 37 1013.5
20260506071903 10 137 12.9 19.3 0.00 0.00 0.00 38 1013.4
20260506071403 10 150 8.0 19.3 0.00 0.00 0.00 40 1013.5
20260506070403 9 136 11.3 19.3 0.00 0.00 0.00 41 1013.4
20260506062404 7 137 8.0 12.9 0.00 0.00 0.00 50 1013.5
20260506061903 7 143 9.7 14.5 0.00 0.00 0.00 52 1013.5
20260506061404 7 149 4.8 9.7 0.00 0.00 0.00 54 1013.5
20260506050903 2 63 1.6 3.2 0.00 0.00 0.00 76 1013.7
20260506044403 0 63 3.2 3.2 0.00 0.00 0.00 83 1013.4
20260506043404 0 63 0.0 0.0 0.00 0.00 0.00 86 1013.4
20260506042903 -1 63 0.0 0.0 0.00 0.00 0.00 86 1013.5
20260506042404 -1 63 0.0 1.6 0.00 0.00 0.00 85 1013.5
20260506041903 -1 63 0.0 1.6 0.00 0.00 0.00 85 1013.5
20260506041403 -1 63 1.6 3.2 0.00 0.00 0.00 85 1013.4
20260506040903 -2 63 3.2 4.8 0.00 0.00 0.00 86 1013.5
20260506040404 -2 63 3.2 4.8 0.00 0.00 0.00 86 1013.4
20260506035904 -2 78 3.2 4.8 0.00 0.00 0.00 86 1013.4
20260506035403 -3 95 0.0 3.2 0.00 0.00 0.00 86 1013.4
20260506034904 -3 95 0.0 0.0 0.00 0.00 0.00 85 1013.4
20260506034404 -3 95 0.0 0.0 0.00 0.00 0.00 85 1013.4
20260506033904 -3 95 0.0 0.0 0.00 0.00 0.00 85 1013.4
20260506033404 -3 95 0.0 1.6 0.00 0.00 0.00 85 1013.4
20260506032903 -3 95 1.6 4.8 0.00 0.00 0.00 84 1013.4
20260506031905 -3 95 1.6 3.2 0.00 0.00 0.00 84 1013.3
20260506031404 -3 95 3.2 4.8 0.00 0.00 0.00 83 1013.3
20260506030903 -3 95 3.2 4.8 0.00 0.00 0.00 83 1013.3
20260506030404 -3 95 3.2 4.8 0.00 0.00 0.00 83 1013.3
20260506025903 -3 95 1.6 4.8 0.00 0.00 0.00 82 1013.3
20260506025403 -3 131 1.6 3.2 0.00 0.00 0.00 82 1013.3
20260506024904 -2 131 3.2 4.8 0.00 0.00 0.00 83 1013.3
20260506024404 -2 148 3.2 4.8 0.00 0.00 0.00 84 1013.3
20260506023904 -3 153 0.0 3.2 0.00 0.00 0.00 85 1013.3
20260506023403 -3 154 4.8 8.0 0.00 0.00 0.00 85 1013.3
20260506022403 -3 69 1.6 3.2 0.00 0.00 0.00 84 1013.1
20260506021904 -3 69 1.6 3.2 0.00 0.00 0.00 84 1013.1
20260506021403 -3 69 1.6 4.8 0.00 0.00 0.00 84 1013.1
20260506020404 -3 69 3.2 4.8 0.00 0.00 0.00 84 1013.1
20260506015903 -3 69 3.2 4.8 0.00 0.00 0.00 83 1013.0
20260506014904 -3 69 3.2 4.8 0.00 0.00 0.00 82 1012.9
20260506014403 -3 89 3.2 4.8 0.00 0.00 0.00 83 1012.9
20260506013903 -3 89 1.6 4.8 0.00 0.00 0.00 82 1013.0
20260506013404 -3 89 3.2 4.8 0.00 0.00 0.00 83 1013.0
20260506012903 -3 89 4.8 4.8 0.00 0.00 0.00 82 1013.0
20260506012404 -3 89 3.2 4.8 0.00 0.00 0.00 82 1013.0
20260506011403 -3 74 0.0 0.0 0.00 0.00 0.00 82 1012.9
20260506010903 -3 74 0.0 1.6 0.00 0.00 0.00 82 1012.8
20260506010403 -3 74 0.0 1.6 0.00 0.00 0.00 81 1012.8
20260506005904 -3 74 1.6 3.2 0.00 0.00 0.00 81 1012.8
20260506004903 -3 74 1.6 3.2 0.00 0.00 0.00 81 1012.8
20260506004403 -3 56 1.6 3.2 0.00 0.00 0.00 80 1012.7
20260506003905 -2 56 1.6 3.2 0.00 0.00 0.00 80 1012.8
20260506003404 -2 56 1.6 3.2 0.00 0.00 0.00 80 1012.8
20260506002903 -2 56 0.0 0.0 0.00 0.00 0.00 79 1012.8
20260506002403 -2 56 1.6 3.2 0.00 0.00 0.00 79 1012.8
20260506001904 -2 56 0.0 1.6 0.00 0.00 0.00 80 1012.8
20260506001403 -2 56 1.6 3.2 0.00 0.00 0.00 80 1012.8
20260506000903 -2 56 3.2 4.8 0.00 0.00 0.00 80 1012.8
20260506000404 -2 56 4.8 4.8 0.00 0.00 0.00 80 1012.9
20260505235904 -2 59 3.2 4.8 0.00 0.00 0.00 79 1012.8
20260505235404 -2 73 3.2 4.8 0.00 0.00 0.00 77 1012.8
20260505234904 -2 73 3.2 4.8 0.00 0.00 0.00 76 1012.8
20260505233404 -2 73 1.6 3.2 0.00 0.00 0.00 74 1012.9
20260505232904 -2 73 3.2 4.8 0.00 0.00 0.00 73 1013.0
20260505231904 -1 82 1.6 3.2 0.00 0.00 0.00 73 1013.0
20260505230403 -1 82 3.2 4.8 0.00 0.00 0.00 72 1013.1
20260505225904 -1 75 3.2 4.8 0.00 0.00 0.00 72 1013.0
20260505225404 -1 75 1.6 3.2 0.00 0.00 0.00 72 1013.0
20260505224903 -1 74 1.6 3.2 0.00 0.00 0.00 71 1013.0
20260505224404 -1 74 1.6 4.8 0.00 0.00 0.00 71 1013.0
20260505223904 0 66 3.2 4.8 0.00 0.00 0.00 71 1013.1
20260505223404 0 101 3.2 4.8 0.00 0.00 0.00 71 1013.1
20260505222904 0 103 3.2 4.8 0.00 0.00 0.00 71 1013.1
20260505222404 0 77 3.2 4.8 0.00 0.00 0.00 71 1013.1
20260505221905 0 28 0.0 3.2 0.00 0.00 0.00 71 1013.1
20260505221405 0 28 1.6 3.2 0.00 0.00 0.00 70 1013.1
20260505215403 0 28 1.6 1.6 0.00 0.00 0.00 69 1013.0
20260505214904 0 28 0.0 1.6 0.00 0.00 0.00 68 1013.1
20260505214403 0 28 1.6 3.2 0.00 0.00 0.00 68 1013.1
20260505213904 0 28 1.6 3.2 0.00 0.00 0.00 67 1013.1
20260505212904 0 28 1.6 4.8 0.00 0.00 0.00 66 1013.0
20260505212404 0 352 3.2 4.8 0.00 0.00 0.00 67 1012.9
20260505211904 0 352 1.6 3.2 0.00 0.00 0.00 66 1012.9
20260505211403 0 352 1.6 3.2 0.00 0.00 0.00 64 1012.8
20260505210903 0 352 1.6 3.2 0.00 0.00 0.00 64 1012.7
20260505210403 0 352 1.6 3.2 0.00 0.00 0.00 64 1012.7
20260505205904 0 352 1.6 3.2 0.00 0.00 0.00 64 1012.6
20260505205404 1 351 0.0 3.2 0.00 0.00 0.00 63 1012.5
20260505204903 1 352 0.0 1.6 0.00 0.00 0.00 63 1012.4
20260505204403 1 352 1.6 1.6 0.00 0.00 0.00 64 1012.5
20260505203904 1 352 1.6 3.2 0.00 0.00 0.00 62 1012.4
20260505202904 1 338 1.6 3.2 0.00 0.00 0.00 58 1012.4
20260505202403 2 338 1.6 3.2 0.00 0.00 0.00 58 1012.4
20260505201904 2 308 0.0 0.0 0.00 0.00 0.00 57 1012.4